Columbia / Mount Pleasant, TN

3:16 AM CDT on May 28, 2018 (GMT -0500)
Maury County

Weather History for KMRC - July, 2013

Change the Weather History Date:

Thursday, July 18, 2013

  Actual Average (KBNA) Record (KBNA)
Temperature  
Mean Temperature 86 °F -  
Max Temperature 91 °F 90 °F 99 °F (1952)
Min Temperature 80 °F 68 °F 57 °F (1976)
Cooling Degree Days 20    
Growing Degree Days 36 (Base 50)    
Moisture  
Dew Point 79 °F    
Average Humidity 78    
Maximum Humidity 100    
Minimum Humidity 52    
Precipitation  
Precipitation 0.00 in - - ()
Sea Level Pressure  
Sea Level Pressure 30.13 in    
Wind  
Wind Speed 1 mph (SE)    
Max Wind Speed 9 mph    
Max Gust Speed -    
Visibility 9 miles    
Events      
Averages and records for this station are not official NWS values.
T = Trace of Precipitation, MM = Missing Value Source: NWS Daily Summary

Daily Weather History Graph

Daily Weather History Graph

Search for Another Location

Airport or City:

Astronomy

Jul. 18, 2013 Rise Set
Actual Time 5:46 AM CDT 8:02 PM CDT
Civil Twilight 5:17 AM CDT 8:31 PM CDT
Nautical Twilight 4:42 AM CDT 9:07 PM CDT
Astronomical Twilight 4:03 AM CDT 9:45 PM CDT
Moon 4:00 PM CDT (7/18) 1:34 AM CDT (7/18)
Length of Visible Light 15h 13m
Length of Day
14h 15m
Waxing Gibbous, 77% of the Moon is Illuminated
Jul 18
Waxing Gibbous
Jul 22
Full
Jul 29
Last Quarter
Aug 6
New
Aug 14
First Quarter

Hourly Weather History & Observations

Time (CDT) Temp. Heat Index Dew Point Humidity Pressure Visibility Wind Dir Wind Speed Gust Speed Precip Events Conditions
12:35 AM - - - N/A% 30.18 in 10.0 mi Calm Calm - N/A   Clear
12:55 AM - - - N/A% 30.17 in 6.0 mi Calm Calm - N/A   Clear
1:15 AM - - - N/A% 30.17 in 9.0 mi Calm Calm - N/A   Unknown
1:35 AM - - - N/A% 30.17 in 9.0 mi Calm Calm - N/A   Clear
1:55 AM - - - N/A% 30.17 in 8.0 mi Calm Calm - N/A   Clear
2:15 AM - - - N/A% 30.17 in 10.0 mi Calm Calm - N/A   Clear
2:35 AM - - - N/A% 30.16 in 10.0 mi Calm Calm - N/A   Clear
2:55 AM - - - N/A% 30.16 in 10.0 mi Calm Calm - N/A   Clear
3:15 AM - - - N/A% 30.17 in 4.0 mi Calm Calm - N/A   Clear
3:35 AM - - - N/A% 30.16 in 9.0 mi Calm Calm - N/A   Clear
3:55 AM - - - N/A% 30.16 in 10.0 mi Calm Calm - N/A   Clear
4:15 AM - - - N/A% 30.15 in 10.0 mi Calm Calm - N/A   Clear
4:35 AM - - - N/A% 30.16 in 9.0 mi Calm Calm - N/A   Clear
4:55 AM - - - N/A% 30.16 in 7.0 mi SE 3.5 mph - N/A   Scattered Clouds
5:15 AM - - - N/A% 30.16 in 7.0 mi Calm Calm - N/A   Partly Cloudy
5:35 AM - - - N/A% 30.16 in 7.0 mi Calm Calm - N/A   Clear
5:55 AM - - - N/A% 30.17 in 9.0 mi Calm Calm - N/A   Unknown
6:15 AM - - - N/A% 30.18 in 2.5 mi Calm Calm - N/A   Unknown
6:35 AM - - - N/A% 30.18 in 5.0 mi East 3.5 mph - N/A   Mostly Cloudy
6:55 AM - - - N/A% 30.18 in 8.0 mi Calm Calm - N/A   Overcast
7:15 AM - - - N/A% 30.18 in 0.5 mi SW 9.2 mph - N/A   Unknown
7:35 AM - - - N/A% 30.20 in 10.0 mi NNW 5.8 mph - N/A   Scattered Clouds
7:55 AM - - - N/A% 30.20 in 10.0 mi Calm Calm - N/A   Unknown
8:15 AM - - - N/A% 30.19 in 10.0 mi Calm Calm - N/A   Partly Cloudy
8:35 AM - - - N/A% 30.19 in 10.0 mi South 3.5 mph - N/A   Partly Cloudy
8:55 AM - - - N/A% 30.19 in 9.0 mi Calm Calm - N/A   Partly Cloudy
9:15 AM - - - N/A% 30.18 in 10.0 mi Calm Calm - N/A   Clear
9:35 AM - - - N/A% 30.18 in 10.0 mi Calm Calm - N/A   Partly Cloudy
9:55 AM - - - N/A% 30.18 in 10.0 mi Calm Calm - N/A   Clear
10:15 AM - - - N/A% 30.18 in 9.0 mi Calm Calm - N/A   Clear
10:35 AM - - - N/A% 30.18 in 10.0 mi North 3.5 mph - N/A   Clear
10:55 AM - - - N/A% 30.18 in 10.0 mi Calm Calm - N/A   Clear
11:15 AM 82.4 °F 96.1 °F 82.4 °F 100% 30.18 in 10.0 mi Calm Calm - N/A   Clear
11:35 AM 82.4 °F 96.1 °F 82.4 °F 100% 30.18 in 10.0 mi Calm Calm - N/A   Clear
11:55 AM 84.2 °F 103.5 °F 84.2 °F 100% 30.17 in 10.0 mi Calm Calm - N/A   Clear
12:15 PM 86.0 °F 111.5 °F 86.0 °F 100% 30.16 in 10.0 mi Variable 4.6 mph - N/A   Clear
12:35 PM 87.8 °F 111.7 °F 84.2 °F 89% 30.16 in 10.0 mi East 4.6 mph - N/A   Clear
12:55 PM 87.8 °F 102.5 °F 78.8 °F 75% 30.14 in 10.0 mi ESE 3.5 mph - N/A   Clear
1:15 PM 87.8 °F 108.2 °F 82.4 °F 84% 30.14 in 10.0 mi Variable 4.6 mph - N/A   Clear
1:35 PM 87.8 °F 104.9 °F 80.6 °F 79% 30.13 in 10.0 mi ENE 6.9 mph - N/A   Clear
1:55 PM 89.6 °F 104.7 °F 78.8 °F 70% 30.11 in 10.0 mi SE 4.6 mph - N/A   Clear
2:15 PM 89.6 °F 104.7 °F 78.8 °F 70% 30.10 in 10.0 mi East 8.1 mph - N/A   Clear
2:35 PM 89.6 °F 102.2 °F 77.0 °F 66% 30.09 in 10.0 mi South 4.6 mph - N/A   Clear
2:55 PM 89.6 °F 98.2 °F 73.4 °F 59% 30.08 in 10.0 mi ESE 6.9 mph - N/A   Clear
3:15 PM 89.6 °F 99.8 °F 75.2 °F 62% 30.08 in 10.0 mi Variable 4.6 mph - N/A   Clear
3:35 PM 91.4 °F 105.1 °F 77.0 °F 63% 30.08 in 10.0 mi SSE 6.9 mph - N/A   Partly Cloudy
3:55 PM 89.6 °F 99.8 °F 75.2 °F 62% 30.07 in 10.0 mi South 6.9 mph - N/A   Partly Cloudy
4:15 PM 91.4 °F 105.1 °F 77.0 °F 63% 30.07 in 10.0 mi ESE 6.9 mph - N/A   Clear
5:15 PM 91.4 °F 100.1 °F 73.4 °F 55% 30.05 in 10.0 mi South 4.6 mph - N/A   Clear
5:35 PM 91.4 °F 102.5 °F 75.2 °F 59% 30.06 in 10.0 mi South 4.6 mph - N/A   Clear
5:55 PM 91.4 °F 100.1 °F 73.4 °F 55% 30.06 in 10.0 mi South 5.8 mph - N/A   Clear
6:15 PM 91.4 °F 98.4 °F 71.6 °F 52% 30.07 in 10.0 mi Calm Calm - N/A   Clear
6:35 PM 89.6 °F 98.2 °F 73.4 °F 59% 30.08 in 10.0 mi Calm Calm - N/A   Clear
6:55 PM 87.8 °F 99.7 °F 77.0 °F 70% 30.08 in 10.0 mi Calm Calm - N/A   Clear
7:15 PM 84.2 °F 98.3 °F 80.6 °F 89% 30.07 in 10.0 mi Calm Calm - N/A   Clear
7:35 PM 84.2 °F 103.5 °F 84.2 °F 100% 30.08 in 10.0 mi Calm Calm - N/A   Clear
7:55 PM 82.4 °F 96.1 °F 82.4 °F 100% 30.08 in 10.0 mi North 3.5 mph - N/A   Clear
8:15 PM 80.6 °F 89.3 °F 80.6 °F 100% 30.08 in 10.0 mi Calm Calm - N/A   Clear
8:35 PM 80.6 °F 89.3 °F 80.6 °F 100% 30.09 in 10.0 mi Calm Calm - N/A   Clear
8:55 PM 80.6 °F 89.3 °F 80.6 °F 100% 30.08 in 10.0 mi Calm Calm - N/A   Clear
9:15 PM - - - N/A% 30.09 in 10.0 mi Calm Calm - N/A   Partly Cloudy
9:35 PM - - - N/A% 30.09 in 10.0 mi Calm Calm - N/A   Scattered Clouds
9:55 PM - - - N/A% 30.09 in 10.0 mi Calm Calm - N/A   Partly Cloudy
10:15 PM - - - N/A% 30.09 in 10.0 mi Calm Calm - N/A   Clear
10:35 PM - - - N/A% 30.09 in 10.0 mi Calm Calm - N/A   Clear
10:55 PM - - - N/A% 30.09 in 10.0 mi Calm Calm - N/A   Clear
11:15 PM - - - N/A% 30.09 in 10.0 mi ENE 3.5 mph - N/A   Unknown
11:35 PM - - - N/A% 30.09 in 10.0 mi Calm Calm - N/A   Clear
11:55 PM - - - N/A% 30.08 in 10.0 mi Calm Calm - N/A   Clear